Forside
METAR-TAF:

METAR-TAF

Lufthavne :

Dodge County Airport

Juneau, Wisconsin, USA

Breddekreds: 43-25-36N, længdekreds: 088-42-12W, højde: 285 m

Aktuelle vejr

Denne rapport blev lavet for 27 minutter siden, kl. 11:15 UTC
Vind 6 kt fra østsydøst
Temperatur 2°C
Fugtighed 80%
Tryk 1023 hPa
Sigt: 16.1 km
Overskyet i en højde af 2900 ft

METAR: KUNU 241115Z AUTO 12006KT 10SM OVC029 02/M01 A3022 RMK AO2 T00151006

Tid: 05:42 (11:42 UTC)


TAF: fraværende

Vejrobservationer og prognoser fra mere end 4000 lufthavne (METAR og TAF).

De gule og røde prikker repræsenterer de meteorologiske stationer.

Flyt musen over at se navnet på stationen.

Så klik over at se vejr observationer og prognoser.

At skifte det kort: Klik på de grønne knapper med et sort kors for at zoome ind; på den grønne knap med en bindestreg for at zoome ud; eller på de grønne pile for tilstødende kort.


METAR-TAF: